CW1795 Weather Reports


Display with metric or nautical units.
time (UTC)temp
F
wind
direction
speed
MPH
gust
MPH
rain 1hr
in
rain 24hr
in
rain mn
in
humidity
%
barometer
mb
20170524174503 78 153 16.0 24.0 0.00 0.00 0.00 32 1003.6
20170524174003 78 178 28.0 38.0 0.00 0.00 0.00 29 1003.7
20170524173502 78 165 20.0 26.0 0.00 0.00 0.00 33 1003.9
20170524173003 78 162 20.0 29.0 0.00 0.00 0.00 33 1004.2
20170524171503 77 178 22.0 23.0 0.00 0.00 0.00 33 1004.5
20170524171004 76 116 16.0 22.0 0.00 0.00 0.00 33 1004.5
20170524170503 75 130 6.0 14.0 0.00 0.00 0.00 38 1004.9
20170524170003 75 123 8.0 20.0 0.00 0.00 0.00 38 1004.7
20170524164502 75 171 10.0 17.0 0.00 0.00 0.00 34 1005.2
20170524164004 75 203 14.0 17.0 0.00 0.00 0.00 33 1005.2
20170524163503 75 206 8.0 16.0 0.00 0.00 0.00 35 1005.3
20170524163003 74 181 12.0 15.0 0.00 0.00 0.00 38 1005.2
20170524161502 72 152 6.0 12.0 0.00 0.00 0.00 38 1005.4
20170524161003 71 148 7.0 10.0 0.00 0.00 0.00 40 1005.5
20170524160502 70 88 5.0 7.0 0.00 0.00 0.00 42 1005.8
20170524160003 69 115 9.0 13.0 0.00 0.00 0.00 43 1005.6
20170524154503 67 29 4.0 10.0 0.00 0.00 0.00 46 1006.1
20170524154003 66 0 10.0 10.0 0.00 0.00 0.00 49 1006.2
20170524153503 66 355 7.0 10.0 0.00 0.00 0.00 52 1006.2
20170524153003 66 348 9.0 10.0 0.00 0.00 0.00 49 1006.4
20170524151503 64 15 8.0 14.0 0.00 0.00 0.00 48 1006.9
20170524151003 64 357 17.0 16.0 0.00 0.00 0.00 50 1007.1
20170524150503 64 0 16.0 16.0 0.00 0.00 0.00 49 1007.1
20170524150004 63 347 10.0 10.0 0.00 0.00 0.00 52 1007.4
20170524144502 61 335 12.0 9.0 0.00 0.00 0.00 55 1007.6
20170524144004 61 259 11.0 14.0 0.00 0.00 0.00 55 1007.5
20170524143502 60 14 10.0 16.0 0.00 0.00 0.00 53 1007.3
20170524143003 60 24 10.0 16.0 0.00 0.00 0.00 55 1007.3
20170524141502 58 2 8.0 16.0 0.00 0.00 0.00 57 1007.7
20170524141003 57 61 13.0 17.0 0.00 0.00 0.00 58 1007.7
20170524140503 57 1 6.0 10.0 0.00 0.00 0.00 59 1007.8
20170524140003 56 13 15.0 17.0 0.00 0.00 0.00 60 1007.6
20170524134503 54 355 17.0 16.0 0.00 0.00 0.00 63 1007.9
20170524134003 54 5 16.0 17.0 0.00 0.00 0.00 64 1007.8
20170524133503 53 307 6.0 9.0 0.00 0.00 0.00 64 1007.8
20170524133004 52 0 7.0 9.0 0.00 0.00 0.00 64 1007.8
20170524131503 50 349 2.0 6.0 0.00 0.00 0.00 68 1007.9
20170524131004 49 353 9.0 9.0 0.00 0.00 0.00 68 1008.0
20170524130502 49 284 4.0 6.0 0.00 0.00 0.00 69 1008.0
20170524124502 46 10 3.0 7.0 0.00 0.00 0.00 70 1008.5
20170524124004 46 10 6.0 7.0 0.00 0.00 0.00 70 1008.4
20170524123503 46 338 2.0 10.0 0.00 0.00 0.00 70 1008.4
20170524123004 45 285 6.0 13.0 0.00 0.00 0.00 70 1008.7
20170524121503 45 309 2.0 6.0 0.00 0.00 0.00 70 1008.6
20170524121003 45 316 5.0 6.0 0.00 0.00 0.00 69 1008.5
20170524120502 45 320 9.0 7.0 0.00 0.00 0.00 69 1008.6
20170524120004 45 315 4.0 9.0 0.00 0.00 0.00 69 1008.8
20170524114503 45 305 3.0 3.0 0.00 0.00 0.00 69 1008.8
20170524114003 45 305 6.0 6.0 0.00 0.00 0.00 68 1008.8
20170524113503 45 304 3.0 9.0 0.00 0.00 0.00 68 1008.9
20170524113003 45 320 3.0 7.0 0.00 0.00 0.00 68 1009.0
20170524111503 46 325 3.0 6.0 0.00 0.00 0.00 67 1009.2
20170524111003 46 326 6.0 7.0 0.00 0.00 0.00 67 1009.2
20170524110503 46 326 6.0 9.0 0.00 0.00 0.00 67 1009.4
20170524110004 46 321 6.0 7.0 0.00 0.00 0.00 66 1008.9
20170524104503 46 346 5.0 7.0 0.00 0.00 0.00 66 1009.4
20170524104003 46 346 1.0 6.0 0.00 0.00 0.00 65 1009.5
20170524103502 46 349 7.0 9.0 0.00 0.00 0.00 66 1009.5
20170524103003 46 333 7.0 10.0 0.00 0.00 0.00 66 1009.8
20170524101503 46 340 11.0 9.0 0.00 0.00 0.00 65 1010.0
20170524101003 46 340 7.0 10.0 0.00 0.00 0.00 65 1010.1
20170524100503 47 344 14.0 10.0 0.00 0.00 0.00 66 1010.2
20170524100003 47 340 6.0 10.0 0.00 0.00 0.00 65 1010.4
20170524094502 47 319 6.0 6.0 0.00 0.00 0.00 66 1010.7
20170524094003 47 321 6.0 7.0 0.00 0.00 0.00 66 1010.9
20170524093503 47 329 8.0 9.0 0.00 0.00 0.00 66 1010.9
20170524093003 47 338 2.0 9.0 0.00 0.00 0.00 66 1011.1
20170524091503 47 340 9.0 9.0 0.00 0.00 0.00 65 1011.4
20170524091003 47 334 1.0 7.0 0.00 0.00 0.00 65 1011.6
20170524090503 47 334 8.0 9.0 0.00 0.00 0.00 65 1011.6
20170524090003 47 333 7.0 14.0 0.00 0.00 0.00 65 1011.6
20170524084502 47 334 14.0 14.0 0.00 0.00 0.00 65 1011.7
20170524084003 47 310 10.0 9.0 0.00 0.00 0.00 66 1011.8
20170524083503 48 334 10.0 9.0 0.00 0.00 0.00 65 1011.9
20170524083004 48 341 10.0 9.0 0.00 0.00 0.00 65 1011.9
20170524081503 48 344 6.0 6.0 0.00 0.00 0.00 65 1012.3
20170524081003 48 344 5.0 6.0 0.00 0.00 0.00 65 1012.5
20170524080503 48 344 2.0 6.0 0.00 0.00 0.00 66 1012.5
20170524080004 48 344 2.0 7.0 0.00 0.00 0.00 65 1012.7
20170524074503 49 346 1.0 10.0 0.00 0.00 0.00 64 1012.9
20170524074004 49 347 7.0 10.0 0.00 0.00 0.00 63 1012.9
20170524073503 49 349 2.0 6.0 0.00 0.00 0.00 63 1013.1
20170524073003 50 355 1.0 9.0 0.00 0.00 0.00 63 1013.1
20170524071503 50 17 6.0 6.0 0.00 0.00 0.00 64 1013.4
20170524071003 50 17 5.0 7.0 0.00 0.00 0.00 63 1013.5
20170524070503 51 30 6.0 7.0 0.00 0.00 0.00 63 1013.4
20170524070003 51 30 4.0 9.0 0.00 0.00 0.00 62 1013.6
20170524064503 52 23 9.0 9.0 0.00 0.00 0.00 59 1013.7
20170524064004 53 13 5.0 7.0 0.00 0.00 0.00 57 1013.9
20170524063503 54 64 3.0 7.0 0.00 0.00 0.00 53 1013.8
20170524063004 55 105 1.0 2.0 0.00 0.00 0.00 51 1014.0
20170524061503 57 111 0.0 2.0 0.00 0.00 0.00 44 1014.1
20170524061003 57 111 2.0 5.0 0.00 0.00 0.00 43 1014.2
20170524060503 58 107 3.0 5.0 0.00 0.00 0.00 42 1014.2
20170524060004 57 109 2.0 8.0 0.00 0.00 0.00 43 1014.3
20170524054502 58 112 2.0 5.0 0.00 0.00 0.00 43 1014.6
20170524054004 58 123 5.0 10.0 0.00 0.00 0.00 43 1014.6
20170524053502 58 122 4.0 10.0 0.00 0.00 0.00 43 1014.7
20170524053003 58 98 3.0 6.0 0.00 0.00 0.00 43 1014.9
20170524051503 58 103 3.0 5.0 0.00 0.00 0.00 43 1014.9
20170524051003 58 106 2.0 3.0 0.00 0.00 0.00 43 1015.1
20170524050503 58 125 3.0 9.0 0.00 0.00 0.00 43 1015.1
20170524050003 58 116 2.0 8.0 0.00 0.00 0.00 43 1015.0
20170524044503 59 116 5.0 9.0 0.00 0.00 0.00 43 1015.3
20170524044004 59 117 3.0 9.0 0.00 0.00 0.00 43 1015.4
20170524043503 59 107 3.0 7.0 0.00 0.00 0.00 43 1015.5
20170524043004 59 106 5.0 10.0 0.00 0.00 0.00 43 1015.6
20170524041503 60 112 6.0 12.0 0.00 0.00 0.00 44 1015.8
20170524041003 60 116 5.0 10.0 0.00 0.00 0.00 44 1015.9
20170524040503 60 108 7.0 13.0 0.00 0.00 0.00 44 1015.9
20170524040003 60 97 4.0 13.0 0.00 0.00 0.00 44 1016.0
20170524034503 61 117 5.0 9.0 0.00 0.00 0.00 44 1016.2
20170524034004 61 115 5.0 9.0 0.00 0.00 0.00 43 1016.1
20170524033503 62 115 5.0 9.0 0.00 0.00 0.00 43 1016.1
20170524033004 62 117 7.0 16.0 0.00 0.00 0.00 42 1016.2
20170524031503 63 122 4.0 9.0 0.00 0.00 0.00 41 1016.2
20170524031003 63 127 5.0 9.0 0.00 0.00 0.00 40 1016.2
20170524030503 63 120 5.0 13.0 0.00 0.00 0.00 39 1016.3
20170524030004 64 111 5.0 10.0 0.00 0.00 0.00 39 1016.3
20170524024503 65 119 5.0 10.0 0.00 0.00 0.00 38 1016.4
20170524024004 65 117 5.0 8.0 0.00 0.00 0.00 38 1016.4
20170524023503 65 103 3.0 10.0 0.00 0.00 0.00 37 1016.6
20170524023004 66 122 4.0 10.0 0.00 0.00 0.00 37 1016.6
20170524021504 67 119 9.0 14.0 0.00 0.00 0.00 36 1016.7
20170524021004 67 120 10.0 12.0 0.00 0.00 0.00 36 1016.8
20170524020503 68 132 8.0 16.0 0.00 0.00 0.00 36 1017.0
20170524020003 68 120 7.0 14.0 0.00 0.00 0.00 35 1017.1
20170524014504 69 101 12.0 16.0 0.00 0.00 0.00 34 1017.2
20170524014004 69 125 12.0 17.0 0.00 0.00 0.00 34 1017.3
20170524013503 69 114 10.0 16.0 0.00 0.00 0.00 34 1017.4
20170524013004 69 118 9.0 16.0 0.00 0.00 0.00 34 1017.5
20170524011504 69 125 10.0 17.0 0.00 0.00 0.00 35 1017.6
20170524011003 69 120 7.0 14.0 0.00 0.00 0.00 35 1017.5
20170524010503 69 122 7.0 14.0 0.00 0.00 0.00 35 1017.6
20170524010003 69 125 10.0 13.0 0.00 0.00 0.00 35 1017.3
20170524004503 69 104 6.0 12.0 0.00 0.00 0.00 34 1017.4
20170524004003 69 120 9.0 13.0 0.00 0.00 0.00 34 1017.4
20170524003503 69 106 8.0 13.0 0.00 0.00 0.00 33 1017.5
20170524003004 70 95 9.0 15.0 0.00 0.00 0.00 33 1017.6
20170524001503 71 127 7.0 12.0 0.00 0.00 0.00 32 1017.8
20170524001004 71 91 6.0 14.0 0.00 0.00 0.00 32 1017.9
20170524000503 71 129 8.0 13.0 0.00 0.00 0.00 33 1018.0
20170524000003 71 135 6.0 15.0 0.00 0.00 0.00 35 1018.1
20170523234503 72 107 5.0 12.0 0.00 0.00 0.00 31 1018.3
20170523234004 72 157 7.0 12.0 0.00 0.00 0.00 32 1018.4
20170523233503 72 184 7.0 12.0 0.00 0.00 0.00 32 1018.4
20170523233005 72 155 10.0 13.0 0.00 0.00 0.00 32 1018.6
20170523231504 73 179 8.0 14.0 0.00 0.00 0.00 32 1018.7
20170523231004 73 144 5.0 8.0 0.00 0.00 0.00 32 1018.8
20170523230505 73 61 9.0 9.0 0.00 0.00 0.00 31 1018.7
20170523230005 73 115 3.0 7.0 0.00 0.00 0.00 31 1018.6
20170523224503 73 223 5.0 7.0 0.00 0.00 0.00 31 1018.7
20170523224003 73 154 3.0 9.0 0.00 0.00 0.00 31 1018.8
20170523223504 73 151 6.0 10.0 0.00 0.00 0.00 31 1018.8
20170523223004 73 115 2.0 9.0 0.00 0.00 0.00 33 1018.9
20170523221503 73 324 6.0 9.0 0.00 0.00 0.00 34 1018.9
20170523221003 72 353 10.0 10.0 0.00 0.00 0.00 32 1018.9
20170523220503 73 343 17.0 16.0 0.00 0.00 0.00 32 1019.0
20170523220004 72 57 3.0 17.0 0.00 0.00 0.00 32 1018.7
20170523214503 72 330 6.0 10.0 0.00 0.03 0.00 33 1019.0
20170523214004 72 337 4.0 16.0 0.00 0.03 0.00 34 1018.9
20170523213503 72 346 22.0 20.0 0.00 0.03 0.00 34 1019.1
20170523213004 72 7 13.0 16.0 0.00 0.03 0.00 33 1019.1
20170523211505 73 15 2.0 9.0 0.00 0.03 0.00 32 1019.3
20170523211005 73 12 9.0 10.0 0.00 0.03 0.00 32 1019.4
20170523210504 73 7 5.0 10.0 0.00 0.03 0.00 32 1019.5
20170523210004 72 81 9.0 14.0 0.00 0.03 0.00 32 1019.5
20170523204504 72 26 12.0 14.0 0.00 0.03 0.00 34 1019.8
20170523204004 72 349 3.0 6.0 0.00 0.03 0.00 33 1019.9
20170523203504 71 13 1.0 9.0 0.00 0.03 0.00 33 1020.1
20170523203005 71 63 6.0 13.0 0.00 0.03 0.00 34 1020.1
20170523201503 71 266 7.0 10.0 0.00 0.03 0.00 36 1020.3
20170523201003 70 38 7.0 13.0 0.00 0.03 0.00 35 1020.5
20170523200503 70 354 3.0 13.0 0.00 0.03 0.00 36 1020.5
20170523200004 70 132 1.0 10.0 0.00 0.03 0.00 36 1020.6
20170523194503 69 81 9.0 10.0 0.00 0.03 0.00 36 1020.8
20170523194004 69 113 3.0 8.0 0.00 0.03 0.00 37 1020.8
20170523193503 69 53 10.0 13.0 0.00 0.03 0.00 40 1020.9
20170523193004 69 87 5.0 10.0 0.00 0.03 0.00 39 1020.8
20170523191503 68 137 0.0 9.0 0.00 0.03 0.00 40 1020.6
20170523191004 68 67 15.0 14.0 0.00 0.03 0.00 40 1020.9
20170523190503 68 157 3.0 8.0 0.00 0.03 0.00 39 1020.8
20170523190003 68 155 3.0 10.0 0.00 0.03 0.00 39 1020.9
20170523184504 67 75 12.0 14.0 0.00 0.03 0.00 41 1021.1
20170523184003 67 147 1.0 7.0 0.00 0.03 0.00 41 1021.1
20170523183503 66 125 4.0 16.0 0.00 0.03 0.00 40 1021.3
20170523183004 66 72 9.0 16.0 0.00 0.03 0.00 42 1021.4
20170523181503 65 80 10.0 13.0 0.00 0.03 0.00 43 1021.6
20170523181004 65 56 8.0 14.0 0.00 0.03 0.00 43 1021.6
20170523180503 65 97 6.0 10.0 0.00 0.03 0.00 45 1021.6
20170523180004 65 128 5.0 13.0 0.00 0.03 0.00 44 1021.3